Starlink 11550

operational
NORAD ID: 63052 Int'l Des: 2025-035 Owner: SPXS Country: US Constellation: starlink
LEOCIRCULAR

Starlink 11550について

説明を読み込み中...

リアルタイム位置

3D地球を読み込み中...

次回通過

高度履歴

Altitude vs Time

uPlot chart will show altitude changes over time

軌道要素

1 63052U 25035A 25305.63565343 .00280201 00000-0 21015-2 0 9995
2 63052 42.9989 67.0030 0000793 201.8314 158.2520 15.70984851 41087
Epoch: Nov 1, 2025 • Age: 16 hours

現在のステータス

高度 357.2 km
速度 7.70 km/s
衛星直下点 38.61°N, 37.91°E
打ち上げ日 Feb 21, 2025
運用期間 0.6 years
タイプ internet

技術仕様

分類 Payload
質量 960.00 kg
乾燥質量 910.00 kg
総質量 960.00 kg
長さ 0.30 m
直径 4.10 m
スパン 29.00 m
形状 Box + pan
製造者 SPXS
バスタイプ Starlink V2MD
フェーズステータス In Orbit
所有者/国 SPXS/US

大規模コンステレーション

Loading constellations...